Station Historical Data
 
Daily Summary for November 19, 2018 Units:  English    Metric   Both
Next Day »
Daily Weekly Monthly Yearly Custom
  Current: High: Low: Average:
Temperature: 65.0 °F 65.0 °F 49.7 °F 53.3 °F
Dew Point: 21.8 °F 27.3 °F 19.3 °F 23.3 °F
Humidity: 19% 37% 18% 32%
Wind Speed: 0.0mph 18.0mph 0.0mph 3.3mph
Wind Gust: 1.0mph 20.0mph - -
WindCalm - - East
Pressure: 30.08 in 30.13 in 30.08 in -
Precipitation: 0.00 in      
Historical Graphs
 
 
Tabular Data for November 19, 2018
Time Temperature Dew Point Pressure Wind Wind Speed Wind Gust Humidity Rainfall Rate (Hourly) solar Conditions
00:04 50.3 °F 25.0 °F 30.13 in East 4.0 mph 6.0 mph 37% 0.00 in 0.00 W/m2
00:09 50.3 °F 25.0 °F 30.13 in East 12.0 mph 12.0 mph 37% 0.00 in 0.00 W/m2
00:14 50.3 °F 25.0 °F 30.13 in East 1.0 mph 4.0 mph 37% 0.00 in 0.00 W/m2
00:19 50.4 °F 25.1 °F 30.13 in East 1.0 mph 6.0 mph 37% 0.00 in 0.00 W/m2
00:24 50.4 °F 25.1 °F 30.13 in Calm   5.0 mph 37% 0.00 in 0.00 W/m2
00:29 50.4 °F 24.5 °F 30.13 in East 2.0 mph 2.0 mph 36% 0.00 in 0.00 W/m2
00:34 50.4 °F 24.5 °F 30.13 in East 4.0 mph 7.0 mph 36% 0.00 in 0.00 W/m2
00:39 50.5 °F 24.6 °F 30.12 in East 5.0 mph 6.0 mph 36% 0.00 in 0.00 W/m2
00:44 50.5 °F 25.2 °F 30.12 in East 9.0 mph 9.0 mph 37% 0.00 in 0.00 W/m2
00:49 50.5 °F 24.6 °F 30.12 in East 1.0 mph 11.0 mph 36% 0.00 in 0.00 W/m2
00:54 50.5 °F 24.6 °F 30.12 in Calm   8.0 mph 36% 0.00 in 0.00 W/m2
00:59 50.5 °F 24.6 °F 30.12 in East 5.0 mph 14.0 mph 36% 0.00 in 0.00 W/m2
01:04 50.5 °F 24.6 °F 30.12 in East 1.0 mph 4.0 mph 36% 0.00 in 0.00 W/m2
01:09 50.5 °F 24.6 °F 30.12 in ESE 1.0 mph 12.0 mph 36% 0.00 in 0.00 W/m2
01:14 50.4 °F 24.5 °F 30.11 in Calm   6.0 mph 36% 0.00 in 0.00 W/m2
01:19 50.4 °F 24.5 °F 30.11 in East 4.0 mph 9.0 mph 36% 0.00 in 0.00 W/m2
01:24 50.4 °F 24.5 °F 30.11 in East 15.0 mph 15.0 mph 36% 0.00 in 0.00 W/m2
01:29 50.4 °F 24.5 °F 30.11 in East 15.0 mph 15.0 mph 36% 0.00 in 0.00 W/m2
01:34 50.4 °F 24.5 °F 30.11 in ESE 12.0 mph 16.0 mph 36% 0.00 in 0.00 W/m2
01:39 50.4 °F 24.5 °F 30.11 in East 12.0 mph 16.0 mph 36% 0.00 in 0.00 W/m2
01:44 50.4 °F 24.5 °F 30.11 in East 11.0 mph 20.0 mph 36% 0.00 in 0.00 W/m2
01:49 50.4 °F 24.5 °F 30.11 in East 6.0 mph 15.0 mph 36% 0.00 in 0.00 W/m2
01:54 50.4 °F 23.8 °F 30.11 in East 8.0 mph 8.0 mph 35% 0.00 in 0.00 W/m2
01:59 50.5 °F 23.9 °F 30.11 in ESE 6.0 mph 15.0 mph 35% 0.00 in 0.00 W/m2
02:04 50.5 °F 23.9 °F 30.11 in ESE 15.0 mph 16.0 mph 35% 0.00 in 0.00 W/m2
02:09 50.5 °F 23.2 °F 30.11 in Calm   12.0 mph 34% 0.00 in 0.00 W/m2
02:14 50.6 °F 24.0 °F 30.11 in ESE 1.0 mph 4.0 mph 35% 0.00 in 0.00 W/m2
02:19 50.5 °F 23.9 °F 30.11 in East 7.0 mph 19.0 mph 35% 0.00 in 0.00 W/m2
02:24 50.5 °F 23.9 °F 30.11 in Calm   14.0 mph 35% 0.00 in 0.00 W/m2
02:29 50.5 °F 23.2 °F 30.11 in East 18.0 mph 18.0 mph 34% 0.00 in 0.00 W/m2
02:34 50.5 °F 23.2 °F 30.10 in ESE 4.0 mph 15.0 mph 34% 0.00 in 0.00 W/m2
02:39 50.5 °F 23.2 °F 30.10 in ESE 6.0 mph 15.0 mph 34% 0.00 in 0.00 W/m2
02:44 50.6 °F 23.3 °F 30.10 in ESE 6.0 mph 14.0 mph 34% 0.00 in 0.00 W/m2
02:49 50.6 °F 22.6 °F 30.10 in East 4.0 mph 18.0 mph 33% 0.00 in 0.00 W/m2
02:54 50.7 °F 22.7 °F 30.10 in East 14.0 mph 14.0 mph 33% 0.00 in 0.00 W/m2
02:59 50.7 °F 22.7 °F 30.10 in ESE 12.0 mph 14.0 mph 33% 0.00 in 0.00 W/m2
03:04 50.8 °F 22.8 °F 30.10 in East 4.0 mph 12.0 mph 33% 0.00 in 0.00 W/m2
03:09 50.8 °F 22.8 °F 30.10 in Calm   14.0 mph 33% 0.00 in 0.00 W/m2
03:14 50.8 °F 22.8 °F 30.10 in East 12.0 mph 12.0 mph 33% 0.00 in 0.00 W/m2
03:19 50.9 °F 22.8 °F 30.10 in Calm   16.0 mph 33% 0.00 in 0.00 W/m2
03:24 50.9 °F 22.8 °F 30.10 in Calm   4.0 mph 33% 0.00 in 0.00 W/m2
03:29 50.9 °F 22.1 °F 30.10 in East 11.0 mph 13.0 mph 32% 0.00 in 0.00 W/m2
03:34 50.8 °F 22.0 °F 30.10 in East 9.0 mph 13.0 mph 32% 0.00 in 0.00 W/m2
03:39 50.8 °F 22.0 °F 30.10 in East 2.0 mph 6.0 mph 32% 0.00 in 0.00 W/m2
03:44 50.9 °F 22.8 °F 30.10 in Calm   18.0 mph 33% 0.00 in 0.00 W/m2
03:49 50.8 °F 22.8 °F 30.10 in East 8.0 mph 14.0 mph 33% 0.00 in 0.00 W/m2
03:54 50.8 °F 22.0 °F 30.10 in ESE 1.0 mph 5.0 mph 32% 0.00 in 0.00 W/m2
03:59 50.8 °F 22.0 °F 30.10 in ESE 2.0 mph 8.0 mph 32% 0.00 in 0.00 W/m2
04:04 50.8 °F 22.8 °F 30.10 in Calm   15.0 mph 33% 0.00 in 0.00 W/m2
04:09 50.8 °F 22.0 °F 30.10 in East 2.0 mph 6.0 mph 32% 0.00 in 0.00 W/m2
04:14 50.8 °F 22.8 °F 30.10 in ESE 14.0 mph 16.0 mph 33% 0.00 in 0.00 W/m2
04:19 50.8 °F 22.0 °F 30.10 in East 8.0 mph 14.0 mph 32% 0.00 in 0.00 W/m2
04:24 50.8 °F 22.8 °F 30.10 in East 1.0 mph 12.0 mph 33% 0.00 in 0.00 W/m2
04:29 50.7 °F 22.7 °F 30.10 in ESE 9.0 mph 9.0 mph 33% 0.00 in 0.00 W/m2
04:34 50.7 °F 21.9 °F 30.10 in East 9.0 mph 9.0 mph 32% 0.00 in 0.00 W/m2
04:39 50.6 °F 22.6 °F 30.10 in East 2.0 mph 14.0 mph 33% 0.00 in 0.00 W/m2
04:44 50.5 °F 22.5 °F 30.10 in East 8.0 mph 8.0 mph 33% 0.00 in 0.00 W/m2
04:49 50.5 °F 22.5 °F 30.10 in Calm   5.0 mph 33% 0.00 in 0.00 W/m2
04:54 50.4 °F 22.4 °F 30.10 in East 2.0 mph 11.0 mph 33% 0.00 in 0.00 W/m2
05:00 50.4 °F 22.4 °F 30.10 in Calm   15.0 mph 33% 0.00 in 0.00 W/m2
05:04 50.4 °F 22.4 °F 30.10 in ESE 1.0 mph 11.0 mph 33% 0.00 in 0.00 W/m2
05:09 50.4 °F 22.4 °F 30.10 in ESE 8.0 mph 14.0 mph 33% 0.00 in 0.00 W/m2
05:14 50.3 °F 22.3 °F 30.10 in ESE 1.0 mph 13.0 mph 33% 0.00 in 0.00 W/m2
05:19 50.2 °F 22.2 °F 30.10 in Calm   13.0 mph 33% 0.00 in 0.00 W/m2
05:24 50.2 °F 22.2 °F 30.10 in East 2.0 mph 2.0 mph 33% 0.00 in 0.00 W/m2
05:29 50.1 °F 22.8 °F 30.10 in East 5.0 mph 12.0 mph 34% 0.00 in 0.00 W/m2
05:34 50.1 °F 22.8 °F 30.10 in ESE 6.0 mph 9.0 mph 34% 0.00 in 0.00 W/m2
05:39 50.0 °F 22.8 °F 30.10 in Calm   11.0 mph 34% 0.00 in 0.00 W/m2
05:44 50.0 °F 22.8 °F 30.10 in East 6.0 mph 12.0 mph 34% 0.00 in 0.00 W/m2
05:49 50.0 °F 22.8 °F 30.10 in Calm   13.0 mph 34% 0.00 in 0.00 W/m2
05:54 50.0 °F 22.8 °F 30.10 in ESE 2.0 mph 7.0 mph 34% 0.00 in 0.00 W/m2
05:59 50.1 °F 22.1 °F 30.10 in Calm   14.0 mph 33% 0.00 in 0.00 W/m2
06:04 50.1 °F 22.1 °F 30.10 in ESE 2.0 mph 5.0 mph 33% 0.00 in 0.00 W/m2
06:09 50.1 °F 22.1 °F 30.10 in East 1.0 mph 4.0 mph 33% 0.00 in 0.00 W/m2
06:14 50.1 °F 22.8 °F 30.10 in Calm   13.0 mph 34% 0.00 in 0.00 W/m2
06:19 50.1 °F 22.8 °F 30.10 in East 4.0 mph 12.0 mph 34% 0.00 in 0.00 W/m2
06:24 50.1 °F 22.8 °F 30.10 in East 2.0 mph 6.0 mph 34% 0.00 in 0.00 W/m2
06:29 50.1 °F 22.8 °F 30.10 in East 2.0 mph 9.0 mph 34% 0.00 in 0.00 W/m2
06:34 50.0 °F 22.8 °F 30.10 in East 11.0 mph 11.0 mph 34% 0.00 in 0.00 W/m2
06:39 50.0 °F 22.8 °F 30.11 in East 8.0 mph 11.0 mph 34% 0.00 in 5.00 W/m2
06:44 49.9 °F 22.7 °F 30.10 in East 8.0 mph 15.0 mph 34% 0.00 in 7.00 W/m2
06:49 49.9 °F 22.7 °F 30.10 in East 8.0 mph 12.0 mph 34% 0.00 in 9.00 W/m2
06:54 49.8 °F 22.6 °F 30.11 in East 4.0 mph 12.0 mph 34% 0.00 in 9.00 W/m2
06:59 49.7 °F 22.5 °F 30.11 in East 2.0 mph 9.0 mph 34% 0.00 in 14.00 W/m2
07:04 49.8 °F 22.6 °F 30.11 in East 4.0 mph 19.0 mph 34% 0.00 in 18.00 W/m2
07:09 49.9 °F 22.7 °F 30.11 in Calm   5.0 mph 34% 0.00 in 25.00 W/m2
07:14 49.9 °F 22.7 °F 30.11 in East 13.0 mph 15.0 mph 34% 0.00 in 30.00 W/m2
07:19 50.0 °F 22.8 °F 30.11 in East 13.0 mph 13.0 mph 34% 0.00 in 39.00 W/m2
07:24 50.1 °F 22.8 °F 30.11 in East 1.0 mph 12.0 mph 34% 0.00 in 42.00 W/m2
07:29 50.2 °F 22.9 °F 30.11 in East 1.0 mph 5.0 mph 34% 0.00 in 53.00 W/m2
07:34 50.3 °F 23.0 °F 30.11 in East 6.0 mph 7.0 mph 34% 0.00 in 69.00 W/m2
07:39 50.3 °F 23.0 °F 30.11 in Calm   5.0 mph 34% 0.00 in 81.00 W/m2
07:44 50.4 °F 23.1 °F 30.11 in Calm   4.0 mph 34% 0.00 in 98.00 W/m2
07:49 50.4 °F 23.8 °F 30.11 in Calm   1.0 mph 35% 0.00 in 74.00 W/m2
07:54 50.4 °F 23.1 °F 30.12 in East 6.0 mph 6.0 mph 34% 0.00 in 83.00 W/m2
07:59 50.4 °F 23.8 °F 30.12 in East 6.0 mph 7.0 mph 35% 0.00 in 88.00 W/m2
08:05 50.4 °F 23.8 °F 30.12 in East 2.0 mph 5.0 mph 35% 0.00 in 102.00 W/m2
08:09 50.5 °F 23.9 °F 30.12 in Calm   2.0 mph 35% 0.00 in 148.00 W/m2
08:14 50.5 °F 23.9 °F 30.12 in Calm   4.0 mph 35% 0.00 in 156.00 W/m2
08:19 50.6 °F 24.6 °F 30.12 in Calm   4.0 mph 36% 0.00 in 162.00 W/m2
08:24 50.6 °F 24.6 °F 30.12 in Calm   1.0 mph 36% 0.00 in 176.00 W/m2
08:29 50.7 °F 24.7 °F 30.12 in East 2.0 mph 9.0 mph 36% 0.00 in 181.00 W/m2
08:34 50.9 °F 24.9 °F 30.12 in Calm   6.0 mph 36% 0.00 in 213.00 W/m2
08:39 51.0 °F 25.0 °F 30.12 in East 2.0 mph 2.0 mph 36% 0.00 in 265.00 W/m2
08:44 51.2 °F 25.2 °F 30.12 in Calm   2.0 mph 36% 0.00 in 251.00 W/m2
08:49 51.4 °F 25.4 °F 30.12 in East 1.0 mph 5.0 mph 36% 0.00 in 244.00 W/m2
08:54 51.7 °F 25.6 °F 30.12 in East 9.0 mph 9.0 mph 36% 0.00 in 237.00 W/m2
08:59 51.9 °F 25.8 °F 30.12 in Calm   5.0 mph 36% 0.00 in 287.00 W/m2
09:04 52.2 °F 25.4 °F 30.12 in East 2.0 mph 4.0 mph 35% 0.00 in 311.00 W/m2
09:09 52.4 °F 25.6 °F 30.12 in East 1.0 mph 5.0 mph 35% 0.00 in 346.00 W/m2
09:14 52.8 °F 26.6 °F 30.13 in Calm   6.0 mph 36% 0.00 in 364.00 W/m2
09:19 53.2 °F 26.3 °F 30.13 in Calm     35% 0.00 in 390.00 W/m2
09:24 53.6 °F 25.9 °F 30.13 in ESE 1.0 mph 2.0 mph 34% 0.00 in 404.00 W/m2
09:29 54.1 °F 27.1 °F 30.13 in Calm   5.0 mph 35% 0.00 in 390.00 W/m2
09:34 54.6 °F 26.8 °F 30.13 in Calm     34% 0.00 in 392.00 W/m2
09:39 55.1 °F 27.3 °F 30.13 in East 4.0 mph 4.0 mph 34% 0.00 in 380.00 W/m2
09:44 55.5 °F 25.4 °F 30.13 in Calm   1.0 mph 31% 0.00 in 350.00 W/m2
09:49 56.0 °F 25.0 °F 30.13 in East 4.0 mph 5.0 mph 30% 0.00 in 339.00 W/m2
09:54 56.6 °F 25.6 °F 30.13 in Calm     30% 0.00 in 364.00 W/m2
09:59 57.0 °F 24.2 °F 30.13 in Calm     28% 0.00 in 385.00 W/m2
10:04 57.4 °F 25.4 °F 30.13 in Calm     29% 0.00 in 359.00 W/m2
10:09 57.9 °F 26.7 °F 30.13 in Calm     30% 0.00 in 276.00 W/m2
10:14 58.2 °F 24.4 °F 30.13 in Calm     27% 0.00 in 329.00 W/m2
10:19 58.5 °F 24.7 °F 30.13 in Calm     27% 0.00 in 397.00 W/m2
10:24 58.8 °F 24.9 °F 30.13 in Calm   1.0 mph 27% 0.00 in 464.00 W/m2
10:29 59.1 °F 26.1 °F 30.13 in Calm     28% 0.00 in 455.00 W/m2
10:34 59.4 °F 22.6 °F 30.13 in Calm     24% 0.00 in 376.00 W/m2
10:39 59.7 °F 22.9 °F 30.13 in Calm     24% 0.00 in 462.00 W/m2
10:44 60.0 °F 23.1 °F 30.12 in Calm     24% 0.00 in 388.00 W/m2
10:49 60.4 °F 24.4 °F 30.12 in Calm     25% 0.00 in 396.00 W/m2
10:54 60.7 °F 24.7 °F 30.12 in Calm     25% 0.00 in 367.00 W/m2
10:59 61.0 °F 21.9 °F 30.12 in Calm     22% 0.00 in 410.00 W/m2
11:04 61.3 °F 22.2 °F 30.12 in Calm     22% 0.00 in 439.00 W/m2
11:09 61.7 °F 21.4 °F 30.12 in Calm     21% 0.00 in 350.00 W/m2
11:14 61.9 °F 21.6 °F 30.12 in Calm     21% 0.00 in 366.00 W/m2
11:19 62.2 °F 22.9 °F 30.11 in Calm     22% 0.00 in 455.00 W/m2
11:24 62.4 °F 25.2 °F 30.11 in Calm     24% 0.00 in 431.00 W/m2
11:29 62.6 °F 21.0 °F 30.11 in ESE 2.0 mph 5.0 mph 20% 0.00 in 459.00 W/m2
11:34 62.8 °F 21.2 °F 30.11 in ESE 4.0 mph 4.0 mph 20% 0.00 in 515.00 W/m2
11:39 63.0 °F 22.5 °F 30.11 in Calm   2.0 mph 21% 0.00 in 417.00 W/m2
11:44 63.2 °F 20.3 °F 30.10 in ESE 2.0 mph 2.0 mph 19% 0.00 in 448.00 W/m2
11:49 63.3 °F 20.4 °F 30.10 in ESE 4.0 mph 5.0 mph 19% 0.00 in 374.00 W/m2
11:54 63.5 °F 19.3 °F 30.10 in ESE 1.0 mph 5.0 mph 18% 0.00 in 475.00 W/m2
11:59 63.7 °F 19.4 °F 30.10 in Calm     18% 0.00 in 464.00 W/m2
12:04 63.8 °F 19.5 °F 30.10 in Calm   4.0 mph 18% 0.00 in 478.00 W/m2
12:09 64.0 °F 19.7 °F 30.09 in Calm   1.0 mph 18% 0.00 in 596.00 W/m2
12:14 64.1 °F 19.8 °F 30.09 in ESE 1.0 mph 4.0 mph 18% 0.00 in 589.00 W/m2
12:19 64.3 °F 19.9 °F 30.09 in ESE 1.0 mph 2.0 mph 18% 0.00 in 568.00 W/m2
12:24 64.5 °F 20.1 °F 30.09 in Calm     18% 0.00 in 540.00 W/m2
12:29 64.7 °F 21.5 °F 30.09 in ESE 4.0 mph 7.0 mph 19% 0.00 in 445.00 W/m2
12:34 64.8 °F 21.6 °F 30.09 in ESE 2.0 mph 5.0 mph 19% 0.00 in 448.00 W/m2
12:39 64.9 °F 21.7 °F 30.09 in ESE 5.0 mph 5.0 mph 19% 0.00 in 406.00 W/m2
12:44 65.0 °F 21.8 °F 30.08 in ESE 2.0 mph 2.0 mph 19% 0.00 in 353.00 W/m2
12:49 65.0 °F 21.8 °F 30.08 in Calm   1.0 mph 19% 0.00 in 359.00 W/m2
Foresthill Weather
 WU-history PHP script courtesy of   Juneau County Weather.
powered by Cumulus v1.9.3 (1059)
Ambient Weather VWS v14.00
Top Contact Website Map Copyright © 2007 - 2018 Foresthillweather.com Never base important decisions on this or any weather information obtained from the Internet